User: anonymous   Login
Location: Unspecified
(0.0000°N, 0.0000°E)
Time: 15:39:55
(UTC+00:00)
Language:

TISAT 1 - Orbit

View from above orbital plane
View from above orbital plane
View from above satellite
View from above satellite

Ground track
Ground track

The orbit data is extracted from the following two-line orbital elements,

1 36799U 10035E   17229.30513396  .00000465  00000-0  53703-4 0  9991
2 36799  98.0686 353.2950 0013652 123.5724 236.6799 14.90447390384885
Epoch (UTC): 17 August 2017 07:19:23
Eccentricity: 0.0013652
inclination: 98.0686°
perigee height: 587 km
apogee height: 606 km
right ascension of ascending node: 353.2950°
argument of perigee: 123.5724°
revolutions per day: 14.90447390
mean anomaly at epoch: 236.6799°
orbit number at epoch: 38488

The dashed part of the orbit path shows where the satellite is in the earth's shadow,  

DLR